Weather History for Guymon, OK

Change the Weather History Date:

Tuesday, May 20, 2014

  Actual Average Record
Temperature  
Mean Temperature 77 °F 66 °F  
Max Temperature 97 °F 80 °F 97 °F (2004)
Min Temperature 56 °F 52 °F 44 °F (2000)
Degree Days  
Heating Degree Days 0 2  
Month to date heating degree days 77 79  
Since 1 July heating degree days 4532 4432  
Cooling Degree Days 12 3  
Month to date cooling degree days 84 44  
Year to date cooling degree days 112 59  
Growing Degree Days 28 (Base 50)    
Moisture  
Dew Point 27 °F    
Average Humidity 23    
Maximum Humidity 41    
Minimum Humidity 4    
Precipitation  
Precipitation 0.00 in 0.08 in 0.13 in (2001)
Month to date precipitation 0.01 1.30  
Year to date precipitation 1.11 5.11  
Snow  
Snow 0.00 in - - ()
Month to date snowfall 0.0  
Since 1 July snowfall 16.2  
Snow Depth 0.00 in    
Sea Level Pressure  
Sea Level Pressure 29.69 in    
Wind  
Wind Speed 10 mph (WSW)    
Max Wind Speed 21 mph    
Max Gust Speed 26 mph    
Visibility 10 miles    
Events      
T = Trace of Precipitation, MM = Missing Value Source: NWS Daily Summary

Daily Weather History Graph

Daily Weather History Graph

Search for Another Location

Airport:

Trip Planner

Search our weather history database for the weather conditions in past years. The results will help you decide how hot, cold, wet, or windy it might be!

Date:

Astronomy

May. 20, 2014 Rise Set
Actual Time 6:34 AM CDT 8:50 PM CDT
Civil Twilight 6:05 AM CDT 9:19 PM CDT
Nautical Twilight 5:29 AM CDT 9:55 PM CDT
Astronomical Twilight 4:50 AM CDT 10:35 PM CDT
Moon 1:25 AM CDT (5/20) 12:39 PM CDT (5/20)
Length of Visible Light 15h 14m
Length of Day
14h 15m
Waning Gibbous, 60% of the Moon is Illuminated
May 20
Waning Gibbous
May 21
Last Quarter
May 28
New
Jun 5
First Quarter
Jun 12
Full

Hourly Weather History & Observations

Time (CDT) Temp. Dew Point Humidity Pressure Visibility Wind Dir Wind Speed Gust Speed Precip Events Conditions
2:53 AM 66.9 °F 9.0 °F 10% 29.55 in 10.0 mi SW 17.3 mph - N/A   Clear
4:53 AM 64.0 °F 10.9 °F 13% 29.57 in 10.0 mi WSW 13.8 mph - N/A   Clear
5:53 AM 59.0 °F 14.0 °F 17% 29.60 in 10.0 mi SW 9.2 mph - N/A   Clear
7:53 AM 59.0 °F 21.9 °F 24% 29.68 in 10.0 mi SSE 8.1 mph - N/A   Clear
8:53 AM 70.0 °F 21.0 °F 16% 29.72 in 10.0 mi West 6.9 mph - N/A   Clear
9:53 AM 73.9 °F 48.9 °F 41% 29.74 in 10.0 mi NNW 16.1 mph - N/A   Clear
10:53 AM 77.0 °F 50.0 °F 39% 29.76 in 10.0 mi NW 12.7 mph - N/A   Clear
11:53 AM 81.0 °F 50.0 °F 34% 29.77 in 10.0 mi NW 9.2 mph - N/A   Clear
12:53 PM 84.0 °F 50.0 °F 31% 29.75 in 10.0 mi WNW 12.7 mph 19.6 mph N/A   Clear
1:53 PM 86.0 °F 46.9 °F 26% 29.74 in 10.0 mi WNW 11.5 mph - N/A   Clear
2:53 PM 89.1 °F 39.9 °F 18% 29.72 in 10.0 mi WNW 6.9 mph - N/A   Clear
4:53 PM 91.0 °F 28.9 °F 11% 29.69 in 10.0 mi SE 5.8 mph - N/A   Clear
5:53 PM 96.1 °F 8.1 °F 4% 29.67 in 10.0 mi WSW 13.8 mph - N/A   Clear
6:53 PM 91.9 °F 3.9 °F 4% 29.68 in 10.0 mi SW 15.0 mph - N/A   Clear
7:53 PM 87.1 °F 15.1 °F 7% 29.67 in 10.0 mi Calm Calm - N/A   Clear
8:53 PM 81.0 °F 24.1 °F 12% 29.67 in 10.0 mi SSE 3.5 mph - N/A   Clear
9:53 PM 75.0 °F 18.0 °F 12% 29.69 in 10.0 mi SSW 6.9 mph - N/A   Clear
10:53 PM 68.0 °F 23.0 °F 18% 29.70 in 10.0 mi SSW 4.6 mph - N/A   Clear
11:53 PM 66.0 °F 25.0 °F 21% 29.70 in 10.0 mi SW 5.8 mph - N/A   Clear